Wind_Speed
15 16 18 19 21 20 17 15 14 14 15 15 14 14 13 11 10 9 10 10 9 10 10 9 9 10 10 10 10 10 10 10 10 11 11 11 11 10 9 9 9 9 9 9 9 8 8 8 8 8 8 7 7 8 7 6 5 4 4 4 4 4 4
15 17 18 18 19 19 17 16 16 15 16 16 15 15 14 13 11 10 10 10 10 11 12 12 11 11 11 11 11 10 10 10 11 11 12 11 11 10 9 9 9 8 9 9 8 7 8 8 8 8 8 8 8 7 6 4 4 4 3 3 4 4 4
16 18 18 19 19 17 16 16 15 16 16 16 16 15 14 13 11 11 11 12 12 13 14 14 14 13 12 11 11 11 11 11 11 11 12 12 11 10 9 9 9 9 8 8 7 7 7 8 8 8 8 9 9 7 6 5 4 4 4 4 5 5 5
17 18 18 19 20 19 17 17 16 16 16 17 17 17 16 14 12 12 13 14 15 15 16 16 15 14 13 12 11 11 11 12 11 11 12 12 10 10 9 9 9 9 9 8 8 8 7 8 8 9 9 9 8 7 7 6 5 5 4 5 6 6 6
17 17 16 17 19 19 18 17 16 15 16 17 18 19 18 15 13 14 15 16 18 18 17 16 15 13 12 12 11 11 12 12 12 11 11 11 10 9 10 10 9 9 10 9 9 8 8 8 9 10 10 9 8 8 7 7 6 6 5 6 8 7 7
17 17 16 16 17 19 19 16 16 16 16 17 19 20 18 14 14 16 17 18 19 19 17 16 14 13 12 12 11 11 11 12 12 11 10 10 10 10 10 10 10 10 10 9 9 9 9 9 10 11 10 9 8 8 8 7 7 6 6 8 9 7 7
15 16 17 17 17 19 20 18 18 18 17 18 18 18 16 15 16 18 19 20 19 18 16 15 14 13 13 12 11 10 10 11 11 11 10 10 10 10 10 10 11 11 10 9 9 10 10 10 11 11 10 9 8 8 7 7 6 6 7 10 9 6 6
13 13 15 16 16 16 19 19 18 18 18 18 18 16 16 17 18 19 20 20 19 17 16 16 15 14 13 12 11 10 10 10 10 10 10 10 9 9 10 10 11 11 10 10 10 10 11 11 11 11 10 9 9 8 6 6 6 7 8 10 9 7 7
14 12 13 14 13 12 15 17 18 19 18 18 17 16 17 18 19 20 21 21 20 18 17 17 16 14 13 12 11 11 11 11 11 10 10 9 9 9 10 11 11 11 11 11 11 11 11 11 11 11 10 9 9 8 7 7 7 9 10 11 10 9 9
16 14 14 14 13 12 13 15 17 19 19 18 17 18 19 19 20 21 21 21 20 19 18 18 16 15 14 12 12 12 12 12 11 10 9 9 9 10 11 12 12 13 13 12 12 12 12 12 12 11 10 9 8 8 8 8 8 10 12 11 10 10 10
19 16 15 15 15 14 14 14 17 19 18 17 17 19 19 19 21 22 22 21 21 19 19 18 16 15 14 13 13 13 13 12 12 11 10 10 11 13 14 14 14 14 14 13 12 12 12 12 11 11 11 10 8 8 9 8 8 11 14 12 10 10 10
21 19 16 16 17 15 14 15 18 21 19 17 17 19 19 20 22 22 22 21 21 20 19 18 17 16 15 14 13 13 13 12 12 12 12 13 14 15 16 15 14 14 13 13 12 11 11 11 11 11 11 10 9 9 10 9 8 11 14 13 11 11 11
19 17 15 17 18 16 14 16 20 23 21 19 18 19 20 21 23 22 22 21 21 20 19 18 17 16 16 15 14 13 13 13 12 12 12 13 14 15 15 14 13 13 13 13 12 11 11 11 11 11 11 11 11 11 12 11 9 10 13 14 12 12 12
17 14 14 16 17 16 16 17 21 24 24 21 19 19 20 22 22 22 21 21 20 19 19 18 17 16 16 16 15 14 13 13 12 12 12 13 14 14 14 14 14 13 13 12 12 12 12 13 13 12 13 14 13 13 13 13 11 10 12 13 13 12 13
18 15 16 17 17 17 17 19 22 25 24 21 20 19 20 21 21 21 20 19 18 18 17 17 16 16 16 16 15 15 14 13 13 12 12 13 13 14 15 16 16 15 15 14 14 14 14 15 15 15 16 16 14 14 15 14 13 12 11 12 13 13 14
20 17 16 16 16 16 18 20 23 25 23 20 20 20 21 21 20 20 19 18 17 17 16 16 16 15 16 16 16 15 15 14 14 14 13 13 14 14 16 16 17 17 17 16 16 16 16 16 17 18 18 17 16 16 16 15 14 14 12 12 13 14 15
19 17 16 15 13 13 18 21 23 24 22 21 21 21 22 22 22 21 20 18 17 17 16 16 16 15 16 16 16 15 16 15 15 15 14 14 15 15 16 17 17 17 17 17 17 17 17 17 19 20 19 18 18 17 18 18 17 16 15 14 15 15 16
17 16 15 14 12 14 19 21 22 22 22 22 22 22 24 24 23 22 20 19 18 17 17 17 16 16 16 17 16 16 16 16 15 15 15 15 15 16 16 16 17 17 17 17 17 17 18 18 20 21 20 19 19 18 18 19 19 18 17 16 16 17 17
17 15 14 14 15 17 20 22 22 22 23 23 23 23 25 25 24 22 20 19 18 18 18 17 17 17 17 17 17 17 17 16 15 15 16 16 16 16 16 16 16 17 18 18 18 18 19 21 21 21 21 20 20 19 18 19 19 19 19 18 17 18 18
19 17 15 16 17 18 20 22 22 22 22 23 23 23 24 24 23 22 20 18 17 17 17 17 17 18 18 17 17 17 17 17 16 16 16 16 17 17 17 17 18 19 19 20 19 19 21 22 22 22 22 22 22 21 20 19 18 18 19 19 19 18 19
18 17 16 18 19 18 18 20 21 21 21 22 23 22 22 22 21 21 19 18 17 16 17 18 19 19 18 18 18 18 18 18 18 18 18 18 18 18 18 19 19 19 20 20 20 20 20 20 21 22 22 22 23 22 21 20 20 19 19 20 20 20 20
18 17 16 17 18 17 17 18 18 19 21 22 22 22 23 23 22 20 18 19 20 18 18 19 19 19 19 19 19 19 19 19 19 19 19 19 19 19 20 20 19 19 20 20 21 21 21 21 21 22 22 22 23 24 24 23 23 22 21 21 21 21 22
19 18 17 15 16 16 16 17 18 20 22 23 21 22 23 23 21 19 17 19 20 20 19 20 20 20 20 20 20 20 21 21 21 21 21 20 21 21 21 20 19 19 20 20 21 21 21 22 22 22 23 24 25 25 25 25 24 24 24 24 24 24 24
20 20 19 16 16 15 15 16 19 21 23 23 21 21 22 21 20 20 18 19 20 21 21 21 20 20 20 20 21 21 22 22 22 23 23 23 23 23 22 21 20 19 19 20 20 21 22 22 22 23 24 25 26 26 25 25 25 25 25 26 26 26 26
19 18 18 18 18 17 17 17 19 20 22 23 23 22 22 21 21 21 21 23 23 23 22 21 20 21 20 20 21 22 23 23 24 25 25 25 24 23 23 22 22 21 20 21 21 22 23 24 24 25 25 26 26 26 26 26 26 27 27 27 27 28 28
18 18 19 20 19 19 18 18 18 19 21 23 24 24 23 22 22 23 24 25 25 23 22 21 20 20 20 21 22 23 23 24 25 26 27 26 24 23 23 23 23 23 22 22 23 24 25 26 26 26 26 26 26 26 27 27 28 28 28 28 28 29 29
19 20 20 20 19 19 20 19 19 20 20 21 23 24 24 23 22 23 24 24 24 23 23 22 21 21 22 23 24 24 24 25 26 27 27 27 25 25 24 25 25 25 24 23 24 26 26 25 26 26 25 25 24 24 26 27 28 28 28 28 29 30 31
19 21 21 20 18 18 19 20 20 21 21 22 23 23 24 23 21 21 22 23 23 23 23 23 22 23 24 25 25 27 27 26 27 28 28 27 27 26 27 27 27 27 26 26 27 28 27 24 24 25 25 25 24 25 26 28 29 30 30 31 32 32 34
18 20 20 20 18 19 22 23 21 21 21 22 22 20 20 19 19 20 21 21 23 23 24 25 25 25 27 27 28 29 28 28 28 29 29 28 27 28 29 29 29 28 27 27 28 29 29 28 27 27 27 28 28 29 30 30 30 31 32 33 34 35 37
17 19 18 19 20 22 24 22 18 18 18 18 18 18 17 18 20 21 22 23 24 24 25 26 27 28 30 31 31 31 30 29 30 31 30 29 30 31 31 31 29 27 27 28 28 29 30 32 31 30 30 30 31 31 32 32 33 34 35 35 36 37 39
17 18 17 19 23 25 23 19 16 17 17 16 18 19 19 20 21 22 22 23 24 25 26 27 28 29 31 32 32 33 32 32 32 31 30 30 30 31 30 28 27 27 28 29 29 30 32 33 33 32 32 32 32 32 33 34 36 37 38 38 39 40 42
18 18 19 20 20 20 20 19 17 16 15 16 17 19 20 20 20 21 21 21 22 23 24 25 26 27 27 27 27 27 27 27 28 26 25 25 24 25 25 25 26 27 28 29 30 30 31 33 34 35 34 34 33 33 34 36 37 39 41 42 43 44 46
22 23 24 22 19 18 19 20 19 17 17 17 18 18 19 20 21 22 22 21 20 20 21 22 24 24 23 22 21 21 21 22 23 22 21 20 20 21 23 24 25 26 27 28 29 30 31 32 34 36 37 37 38 38 39 39 40 42 43 45 46 47 49
20 22 22 20 19 18 18 17 17 17 17 17 18 18 19 21 21 22 23 22 21 20 20 22 23 23 23 23 23 23 24 24 24 23 22 21 21 22 24 25 26 27 27 28 29 31 32 34 36 38 39 40 41 42 42 43 44 45 46 48 49 51 52
13 14 14 14 15 15 15 14 15 16 16 17 18 18 19 20 21 21 22 22 22 21 21 22 23 24 24 25 26 26 27 27 27 26 25 24 24 25 27 28 29 29 30 31 32 34 35 37 38 40 41 42 43 44 45 47 48 50 51 52 53 54 55
15 14 13 13 14 14 15 15 16 16 17 18 19 19 20 20 20 20 21 21 21 22 23 24 24 25 26 26 27 27 27 28 28 28 28 27 28 28 29 30 31 32 33 34 36 37 39 40 41 43 44 45 46 48 49 51 52 53 55 56 57 57 58
19 18 17 17 16 16 16 16 16 18 20 20 21 21 21 21 22 22 22 22 23 24 25 26 27 27 28 28 29 29 29 30 30 30 30 31 31 31 32 32 34 35 36 38 39 41 42 44 45 46 47 48 49 50 51 52 54 55 56 57 58 59 61
Wind_Direction
271 278 274 269 269 273 274 269 266 262 254 254 254 249 252 259 253 242 244 248 248 253 250 239 233 235 238 239 240 243 246 249 252 256 259 263 268 273 274 273 272 272 272 272 273 274 274 271 269 270 267 262 263 264 261 264 275 280 277 278 275 271 276
274 282 278 274 275 276 272 265 264 259 252 252 250 244 250 260 255 246 246 248 248 250 246 241 238 237 238 241 243 245 248 251 255 257 260 262 266 270 270 268 268 267 267 270 272 275 277 274 271 271 267 268 271 265 261 271 283 285 289 291 288 290 293
276 283 278 273 275 274 264 256 257 255 252 251 241 237 251 261 255 248 247 247 246 245 244 242 239 239 240 240 242 244 246 250 252 254 257 259 261 264 263 264 267 270 270 268 267 269 271 269 268 271 274 275 274 270 271 281 279 273 279 286 291 297 293
276 279 279 276 270 262 254 251 254 253 250 246 236 239 255 260 255 254 251 248 246 243 243 240 238 240 240 239 239 240 243 247 250 252 256 257 257 257 260 265 270 273 271 268 265 263 263 264 266 271 273 271 271 274 276 276 268 263 273 284 286 284 280
272 271 276 283 272 256 249 246 246 246 243 241 240 247 255 256 255 256 252 249 246 243 241 240 239 239 238 237 236 235 238 243 245 248 252 256 256 256 259 264 266 266 266 267 266 264 264 263 263 268 266 260 262 272 273 270 268 270 279 279 273 271 277
268 265 270 286 279 256 246 240 235 237 240 242 246 249 250 252 252 251 249 247 244 241 240 240 239 236 231 228 229 231 233 238 243 246 249 254 256 257 260 262 261 260 259 261 264 266 265 262 264 268 263 253 261 272 271 268 270 274 275 268 264 267 273
267 269 269 283 284 257 240 237 234 236 240 241 240 240 242 247 247 245 245 244 243 242 242 240 237 230 224 221 224 228 229 236 245 251 254 258 260 260 261 261 260 259 257 258 261 262 261 260 265 267 256 250 266 276 268 264 268 268 263 259 257 258 260
261 270 268 275 283 258 236 234 234 233 233 230 228 232 238 242 243 243 244 244 244 243 241 238 231 224 221 221 223 229 234 240 249 257 261 264 264 262 261 261 261 262 263 262 261 261 262 262 265 264 254 253 267 271 259 256 259 256 253 253 253 251 251
251 257 256 260 271 258 235 231 230 226 222 220 223 231 237 239 240 242 244 244 243 240 237 235 228 222 222 224 227 234 240 244 249 254 260 262 262 261 260 262 264 264 264 263 263 263 263 264 266 264 258 258 266 264 253 251 253 252 251 254 259 263 262
240 242 244 243 248 248 237 229 224 218 215 218 226 232 235 238 241 243 243 243 241 237 234 232 229 225 225 228 233 239 243 246 248 249 251 254 258 261 262 265 264 262 259 258 259 261 263 265 265 262 262 262 262 259 255 254 255 257 256 258 265 269 271
230 229 235 236 235 236 237 232 221 212 212 220 228 231 234 237 241 244 244 241 238 235 232 230 229 229 230 232 237 244 247 249 249 249 250 253 257 262 264 264 261 258 256 255 256 258 260 262 261 262 266 264 257 258 260 259 260 267 269 270 268 265 266
228 225 227 232 231 227 228 229 218 209 213 224 229 231 235 238 242 244 242 238 235 233 230 229 228 231 233 233 238 246 250 250 251 250 252 256 259 261 262 261 258 258 258 259 260 260 261 261 261 264 266 264 263 267 269 265 259 265 274 279 273 267 266
236 227 225 230 230 224 220 222 219 214 218 227 230 231 235 238 241 242 239 236 233 230 229 229 229 232 234 235 239 247 252 252 253 252 251 253 255 257 259 259 260 260 260 261 262 261 261 263 264 265 266 269 275 276 273 268 256 253 265 275 273 266 265
245 236 231 233 231 225 218 219 219 220 224 229 229 229 234 238 240 238 236 234 231 229 229 230 232 235 238 240 243 249 253 255 255 256 255 252 251 252 255 259 263 265 264 261 259 257 259 262 264 265 268 273 277 277 273 271 265 256 257 267 272 270 271
247 243 239 238 237 232 224 219 218 221 226 229 227 229 234 236 235 233 232 232 230 230 231 233 236 240 243 246 248 252 255 257 258 259 260 259 257 256 257 261 265 269 270 267 264 263 264 267 268 267 270 274 276 275 274 274 273 269 262 264 272 275 276
240 241 243 243 243 235 223 218 218 221 225 226 226 229 230 230 230 230 232 233 233 234 236 237 239 242 245 247 249 253 255 258 261 262 264 264 264 263 263 265 268 272 273 273 272 272 273 273 272 271 273 276 276 274 275 274 272 270 267 264 267 267 268
237 240 244 243 237 220 210 212 217 222 225 224 225 226 225 225 228 230 233 236 237 240 241 241 241 242 243 245 246 248 252 257 263 266 268 267 267 267 268 270 272 275 276 276 277 279 277 274 275 277 277 275 275 274 275 276 274 273 271 269 269 267 265
240 239 240 234 218 202 204 213 220 224 226 227 227 226 225 227 231 234 236 236 238 242 243 242 242 240 239 240 242 245 251 257 263 267 269 270 270 271 271 272 275 277 277 277 279 279 276 274 278 282 279 274 274 273 272 274 276 277 276 273 272 272 269
235 228 228 227 215 203 207 217 224 227 229 232 232 230 227 228 234 238 238 237 240 244 245 243 240 237 236 238 241 246 251 256 259 262 266 269 270 271 272 274 275 276 277 278 280 278 276 277 280 279 277 275 274 270 267 267 270 273 275 273 272 273 275
224 217 219 226 220 211 213 220 226 230 232 235 235 232 228 229 234 238 237 238 242 244 241 238 236 235 236 240 244 248 251 255 257 260 263 265 267 269 272 273 275 278 280 281 281 280 278 279 280 278 277 276 275 271 267 266 267 270 273 276 276 277 278
224 221 223 227 221 216 220 223 227 231 235 237 236 230 226 229 234 235 235 237 240 239 237 236 237 238 240 243 248 250 252 254 257 259 261 262 265 268 270 272 276 280 282 282 282 281 280 280 279 279 277 276 275 274 272 271 272 272 272 274 276 277 278
227 221 220 222 215 215 223 226 229 233 235 237 235 227 226 230 233 234 236 238 234 232 236 239 240 241 243 245 249 250 252 253 256 258 260 261 264 266 268 271 275 279 281 282 282 281 281 281 280 279 278 275 275 275 275 275 275 275 273 272 271 271 272
215 211 213 217 215 220 227 229 232 236 236 237 235 230 231 234 233 232 237 237 231 231 237 241 242 244 246 248 250 251 253 254 256 258 259 261 263 263 266 270 275 280 283 284 284 283 283 283 281 280 278 275 273 272 273 275 276 276 276 275 273 273 274
206 207 212 216 219 226 233 235 237 237 238 239 237 235 235 235 232 231 233 234 234 237 240 242 244 247 250 253 254 255 256 257 258 259 261 262 263 264 266 269 273 279 282 283 282 281 280 279 278 276 276 275 274 274 274 274 274 274 275 276 276 277 278
208 212 216 219 224 230 235 241 243 241 240 237 234 233 232 230 229 228 229 232 237 241 244 246 248 250 252 255 257 257 258 258 260 262 263 264 265 265 266 267 270 273 276 279 279 279 278 276 273 271 271 272 274 275 274 273 273 272 273 275 276 277 277
223 227 225 222 228 235 238 241 243 242 241 235 231 232 233 231 230 230 231 236 241 246 249 249 249 252 255 258 259 259 259 258 258 260 262 264 266 267 267 267 268 269 273 277 279 279 277 274 272 271 271 271 271 271 273 274 274 274 274 274 274 274 274
227 228 228 226 233 240 240 239 237 236 234 230 227 231 235 237 236 237 239 242 246 249 250 249 250 255 260 262 262 261 259 258 258 259 261 263 266 269 270 270 269 268 269 273 275 274 272 271 272 272 271 271 270 270 272 273 274 275 275 274 274 275 276
226 227 227 229 235 240 240 240 238 236 234 232 230 232 236 238 238 240 243 245 246 247 248 250 253 258 262 263 263 262 260 260 261 263 264 264 266 268 271 272 273 272 272 273 273 271 268 267 270 271 271 271 273 274 275 275 275 275 276 276 277 278 280
231 231 228 230 238 243 241 240 238 237 235 233 233 234 235 236 236 239 241 242 243 244 246 249 252 254 255 256 257 257 258 258 260 263 265 267 267 268 271 272 273 272 271 269 267 265 263 264 269 272 272 273 274 277 278 278 278 277 277 277 278 279 281
228 230 229 232 237 238 239 239 234 231 229 227 228 230 231 233 236 239 241 240 240 242 244 247 251 253 254 254 254 255 257 259 260 262 265 267 268 268 269 268 267 266 264 262 258 255 256 260 265 270 273 274 275 277 279 280 280 280 281 281 282 282 284
235 232 230 234 232 229 231 231 220 215 217 219 222 227 230 233 235 237 238 238 239 242 245 248 251 254 257 259 260 260 259 258 258 260 262 263 265 266 265 263 261 260 260 259 256 253 253 256 262 267 273 276 276 277 277 278 280 281 283 284 285 286 286
230 225 227 234 232 223 221 222 219 219 223 225 227 230 232 235 237 238 240 242 244 247 250 252 254 255 258 260 262 261 259 257 257 257 257 258 260 262 260 258 257 258 258 259 259 258 257 260 264 269 274 276 277 277 278 278 279 280 282 284 285 285 285
224 220 223 226 221 215 219 226 233 239 241 241 241 240 241 242 243 244 245 248 251 252 251 252 252 253 255 257 259 260 258 257 256 255 255 255 256 257 258 258 259 260 262 263 265 265 265 267 269 273 275 277 278 280 280 281 281 281 282 282 283 283 283
212 212 213 210 207 214 225 232 238 243 246 249 250 249 249 249 248 248 249 250 252 251 250 250 252 253 256 258 259 259 259 258 258 257 257 258 257 256 258 260 262 264 265 267 269 270 271 272 273 274 276 278 280 282 283 283 284 284 283 283 283 283 283
215 215 215 215 221 232 240 244 247 251 253 253 252 251 250 250 251 251 252 253 254 252 250 250 252 253 256 258 259 260 261 261 261 260 261 262 262 261 262 264 267 270 272 274 275 276 276 277 278 280 281 283 284 284 284 285 285 285 285 285 285 285 285
238 236 236 240 245 250 253 254 255 255 253 252 252 252 253 253 253 254 255 256 256 255 254 254 254 253 253 255 258 260 262 262 262 262 262 263 265 266 267 269 272 275 276 277 278 279 281 282 283 284 285 285 284 284 284 284 285 285 285 286 286 286 287
244 245 248 250 248 244 244 245 246 246 248 248 250 252 254 255 256 257 256 255 253 252 254 255 256 255 255 254 256 257 259 261 263 263 264 265 266 268 270 272 275 277 279 280 281 282 283 284 284 284 284 283 283 283 283 284 284 285 285 285 286 286 286
Height
5796 5796 5796 5796 5796 5798 5799 5800 5800 5800 5801 5802 5802 5803 5803 5804 5804 5805 5806 5807 5807 5808 5808 5809 5810 5810 5812 5813 5813 5812 5812 5812 5813 5813 5814 5814 5815 5816 5816 5817 5817 5817 5817 5817 5817 5817 5817 5817 5818 5819 5819 5820 5820 5820 5820 5821 5821 5821 5821 5820 5820 5820 5819
5795 5795 5795 5795 5795 5796 5797 5798 5799 5798 5799 5799 5800 5800 5801 5802 5802 5803 5804 5805 5805 5806 5807 5808 5808 5809 5810 5811 5811 5810 5811 5811 5811 5812 5812 5812 5813 5814 5814 5815 5816 5816 5816 5816 5816 5816 5816 5816 5816 5817 5818 5818 5818 5819 5819 5820 5819 5819 5819 5819 5818 5818 5818
5793 5793 5793 5794 5794 5794 5795 5796 5797 5797 5797 5797 5797 5798 5799 5799 5800 5801 5802 5803 5804 5805 5806 5807 5807 5807 5808 5808 5808 5808 5809 5809 5810 5810 5810 5811 5811 5812 5812 5813 5814 5814 5814 5814 5814 5814 5814 5814 5815 5815 5816 5816 5816 5817 5818 5818 5818 5818 5817 5817 5817 5817 5817
5790 5790 5790 5791 5791 5792 5792 5793 5794 5795 5795 5795 5796 5797 5797 5798 5799 5799 5800 5802 5803 5804 5804 5805 5805 5805 5806 5806 5806 5806 5807 5807 5808 5808 5808 5809 5810 5810 5810 5811 5811 5812 5812 5812 5812 5813 5813 5813 5813 5814 5814 5814 5814 5815 5816 5817 5817 5817 5817 5816 5815 5815 5815
5787 5788 5788 5789 5789 5789 5790 5790 5791 5791 5792 5793 5794 5795 5795 5796 5797 5798 5799 5800 5801 5802 5802 5803 5803 5803 5803 5804 5804 5804 5805 5806 5806 5807 5807 5807 5808 5808 5809 5809 5809 5809 5810 5810 5810 5811 5811 5812 5812 5812 5812 5813 5813 5814 5814 5815 5815 5815 5815 5814 5813 5813 5813
5785 5786 5786 5786 5786 5786 5786 5787 5787 5788 5790 5791 5792 5792 5793 5794 5795 5796 5797 5798 5799 5799 5799 5800 5800 5801 5801 5801 5802 5802 5803 5804 5804 5805 5805 5806 5806 5807 5807 5807 5807 5807 5808 5808 5808 5809 5809 5810 5810 5810 5811 5811 5812 5812 5812 5812 5813 5813 5813 5812 5811 5812 5812
5782 5783 5784 5784 5783 5783 5783 5784 5785 5786 5787 5788 5789 5790 5791 5792 5793 5794 5795 5796 5796 5796 5797 5797 5798 5798 5799 5799 5800 5800 5801 5802 5802 5803 5804 5804 5805 5805 5805 5805 5805 5805 5805 5806 5806 5807 5807 5808 5808 5808 5809 5809 5810 5810 5810 5810 5811 5811 5810 5809 5809 5810 5810
5779 5780 5780 5781 5781 5780 5781 5782 5783 5784 5785 5786 5787 5788 5789 5790 5791 5792 5792 5793 5793 5794 5794 5795 5796 5796 5797 5797 5798 5798 5799 5800 5800 5801 5802 5803 5804 5804 5804 5803 5803 5803 5803 5804 5804 5804 5805 5806 5806 5806 5807 5807 5808 5808 5809 5809 5809 5808 5807 5806 5807 5808 5808
5776 5777 5777 5778 5778 5778 5779 5780 5780 5781 5783 5784 5785 5786 5787 5788 5789 5790 5790 5791 5791 5792 5792 5793 5794 5795 5795 5796 5796 5797 5798 5798 5798 5799 5800 5801 5802 5803 5802 5802 5802 5802 5801 5802 5802 5802 5803 5803 5804 5804 5805 5805 5806 5806 5807 5807 5807 5806 5805 5805 5805 5806 5806
5773 5774 5774 5775 5775 5776 5777 5778 5778 5779 5780 5781 5782 5784 5784 5785 5786 5787 5788 5789 5789 5790 5790 5791 5792 5793 5793 5794 5795 5795 5796 5796 5797 5797 5798 5799 5799 5800 5801 5801 5801 5800 5800 5800 5800 5800 5801 5801 5801 5802 5802 5803 5804 5804 5805 5805 5805 5804 5803 5804 5804 5804 5804
5770 5770 5771 5771 5772 5773 5774 5775 5776 5777 5778 5779 5780 5781 5782 5783 5784 5785 5787 5787 5788 5788 5789 5789 5790 5791 5792 5793 5793 5794 5794 5795 5795 5796 5796 5797 5797 5798 5798 5799 5799 5798 5798 5798 5798 5799 5799 5799 5799 5800 5800 5801 5802 5803 5803 5804 5803 5802 5801 5802 5803 5802 5802
5766 5766 5767 5768 5769 5769 5771 5772 5774 5775 5776 5777 5778 5779 5780 5781 5782 5783 5785 5785 5786 5786 5787 5788 5788 5789 5790 5791 5791 5792 5793 5793 5794 5794 5795 5795 5795 5796 5796 5797 5796 5796 5796 5796 5796 5797 5797 5797 5797 5798 5798 5799 5800 5801 5801 5802 5802 5800 5799 5799 5800 5800 5800
5765 5764 5765 5766 5766 5767 5768 5770 5771 5772 5774 5775 5775 5776 5778 5779 5780 5781 5783 5783 5784 5785 5785 5785 5786 5787 5787 5788 5789 5790 5791 5791 5792 5792 5793 5793 5793 5794 5794 5794 5794 5794 5794 5794 5794 5795 5795 5795 5796 5796 5797 5797 5798 5799 5799 5800 5800 5799 5798 5797 5798 5798 5797
5762 5762 5763 5764 5764 5764 5766 5767 5769 5770 5771 5772 5773 5774 5775 5777 5778 5779 5780 5781 5782 5783 5783 5783 5784 5785 5785 5786 5787 5788 5788 5789 5789 5790 5790 5790 5791 5791 5792 5792 5792 5793 5793 5792 5793 5793 5793 5793 5794 5794 5795 5795 5796 5796 5796 5796 5797 5797 5797 5795 5795 5795 5795
5759 5760 5761 5762 5762 5763 5763 5765 5767 5768 5769 5770 5771 5772 5774 5775 5776 5777 5778 5779 5780 5780 5781 5782 5782 5783 5783 5784 5785 5785 5786 5787 5787 5787 5787 5788 5788 5789 5789 5790 5790 5791 5791 5791 5791 5791 5791 5791 5792 5792 5792 5793 5793 5793 5793 5793 5793 5794 5794 5793 5792 5792 5792
5756 5757 5758 5759 5760 5760 5761 5763 5764 5766 5767 5768 5769 5771 5772 5773 5773 5774 5775 5776 5777 5778 5779 5779 5780 5781 5781 5782 5782 5783 5783 5784 5785 5785 5785 5786 5786 5787 5787 5788 5788 5788 5788 5788 5788 5788 5789 5789 5789 5789 5789 5790 5790 5790 5790 5790 5790 5790 5791 5791 5791 5791 5790
5754 5755 5755 5756 5757 5758 5759 5760 5762 5763 5765 5766 5767 5769 5769 5770 5771 5772 5773 5774 5775 5776 5777 5777 5778 5779 5779 5780 5780 5781 5781 5781 5782 5783 5783 5783 5784 5784 5785 5785 5786 5786 5786 5786 5786 5786 5787 5787 5786 5787 5787 5787 5788 5787 5787 5786 5787 5787 5788 5788 5788 5789 5789
5752 5752 5753 5754 5754 5755 5756 5758 5759 5761 5762 5763 5765 5766 5767 5768 5769 5770 5771 5772 5773 5774 5774 5775 5776 5777 5777 5777 5778 5778 5779 5779 5780 5780 5780 5781 5781 5782 5782 5783 5784 5784 5784 5784 5784 5784 5784 5784 5784 5784 5785 5785 5785 5785 5784 5784 5783 5784 5785 5785 5786 5786 5786
5749 5750 5750 5751 5751 5752 5754 5756 5757 5758 5759 5761 5762 5763 5764 5765 5767 5768 5769 5770 5771 5772 5772 5773 5774 5774 5775 5775 5776 5776 5776 5777 5778 5778 5778 5779 5779 5779 5780 5781 5781 5781 5781 5781 5782 5782 5782 5782 5782 5782 5782 5782 5782 5782 5782 5781 5782 5782 5782 5783 5783 5783 5783
5744 5746 5747 5748 5749 5750 5751 5753 5754 5756 5757 5758 5759 5761 5762 5763 5764 5765 5767 5768 5769 5770 5770 5770 5771 5771 5772 5773 5773 5774 5774 5775 5776 5776 5776 5777 5777 5777 5778 5778 5778 5778 5778 5778 5779 5779 5778 5778 5778 5778 5778 5778 5778 5778 5779 5779 5779 5780 5779 5779 5779 5779 5778
5741 5743 5744 5745 5746 5748 5749 5750 5752 5753 5755 5756 5757 5759 5760 5761 5762 5764 5765 5766 5767 5767 5768 5768 5768 5769 5770 5771 5771 5771 5772 5773 5773 5774 5774 5775 5775 5775 5775 5776 5776 5776 5776 5775 5775 5776 5776 5775 5775 5775 5775 5775 5775 5775 5776 5776 5776 5777 5776 5776 5775 5775 5774
5738 5740 5742 5743 5744 5745 5746 5748 5750 5751 5752 5753 5755 5757 5757 5758 5760 5762 5763 5764 5764 5765 5765 5765 5766 5767 5768 5768 5769 5769 5769 5770 5771 5771 5772 5772 5773 5773 5773 5773 5773 5773 5773 5773 5773 5773 5773 5773 5773 5773 5773 5773 5773 5772 5772 5773 5773 5773 5773 5773 5772 5772 5771
5736 5738 5740 5741 5741 5743 5744 5746 5747 5748 5749 5750 5753 5754 5755 5756 5759 5760 5761 5761 5762 5762 5762 5763 5764 5764 5765 5766 5766 5767 5767 5768 5768 5768 5769 5769 5770 5770 5770 5771 5771 5771 5771 5770 5770 5770 5770 5770 5770 5770 5770 5770 5770 5770 5770 5770 5769 5769 5768 5768 5768 5768 5768
5734 5735 5737 5738 5739 5741 5742 5743 5745 5745 5747 5749 5751 5752 5753 5755 5757 5757 5758 5759 5759 5759 5760 5761 5762 5762 5763 5764 5764 5764 5765 5765 5765 5765 5766 5766 5767 5767 5768 5768 5768 5768 5768 5768 5767 5767 5766 5766 5767 5767 5767 5766 5767 5767 5767 5767 5766 5766 5765 5765 5765 5765 5765
5731 5733 5734 5735 5737 5738 5740 5741 5742 5743 5745 5746 5748 5749 5750 5752 5753 5754 5755 5756 5756 5757 5758 5759 5759 5760 5760 5761 5761 5761 5762 5762 5762 5762 5762 5763 5764 5765 5765 5765 5765 5765 5765 5765 5764 5764 5763 5763 5763 5763 5763 5763 5764 5764 5763 5763 5763 5762 5762 5762 5762 5762 5762
5729 5730 5731 5733 5734 5736 5738 5739 5740 5741 5742 5744 5745 5746 5747 5749 5750 5751 5752 5752 5753 5754 5755 5756 5756 5757 5758 5758 5758 5759 5759 5759 5759 5759 5758 5759 5761 5762 5762 5762 5762 5762 5762 5762 5761 5760 5760 5759 5759 5760 5760 5760 5761 5761 5760 5759 5759 5758 5759 5759 5759 5758 5758
5727 5728 5729 5730 5732 5733 5735 5736 5737 5738 5740 5741 5742 5743 5745 5746 5748 5748 5749 5750 5751 5752 5752 5753 5754 5754 5755 5755 5756 5756 5756 5756 5756 5755 5755 5756 5758 5758 5759 5758 5759 5759 5759 5759 5758 5756 5756 5756 5756 5757 5757 5757 5758 5758 5757 5756 5755 5755 5755 5755 5754 5754 5753
5725 5726 5727 5728 5729 5730 5732 5733 5734 5735 5737 5738 5739 5740 5742 5744 5745 5746 5747 5747 5748 5749 5749 5750 5751 5752 5752 5752 5753 5753 5753 5754 5753 5753 5753 5754 5754 5754 5754 5754 5754 5755 5755 5755 5754 5753 5752 5753 5753 5754 5754 5754 5754 5754 5753 5752 5752 5752 5751 5751 5750 5750 5749
5723 5724 5725 5726 5727 5727 5728 5729 5731 5732 5734 5735 5736 5738 5739 5741 5742 5743 5744 5744 5745 5746 5747 5747 5748 5748 5748 5748 5749 5749 5749 5750 5750 5749 5749 5750 5750 5750 5750 5750 5750 5750 5751 5751 5750 5749 5749 5749 5750 5750 5750 5750 5750 5749 5749 5749 5749 5748 5747 5747 5746 5745 5745
5721 5722 5723 5724 5724 5724 5725 5726 5728 5730 5731 5733 5734 5735 5737 5738 5739 5739 5740 5741 5742 5743 5744 5744 5744 5744 5744 5744 5745 5745 5746 5746 5746 5746 5746 5746 5746 5746 5746 5746 5746 5746 5746 5746 5746 5745 5745 5745 5746 5746 5746 5746 5746 5745 5744 5745 5744 5744 5743 5743 5742 5741 5740
5719 5719 5721 5721 5721 5722 5723 5724 5725 5727 5728 5730 5731 5732 5734 5735 5736 5736 5737 5738 5739 5740 5740 5741 5741 5741 5741 5741 5741 5741 5742 5742 5742 5742 5743 5743 5742 5742 5742 5742 5742 5742 5742 5742 5742 5742 5741 5741 5742 5742 5742 5742 5742 5741 5741 5740 5740 5739 5738 5737 5736 5736 5734
5716 5717 5718 5719 5719 5720 5721 5722 5723 5724 5726 5727 5728 5730 5731 5732 5733 5734 5735 5736 5737 5737 5738 5738 5738 5738 5738 5738 5738 5738 5738 5738 5739 5739 5739 5739 5739 5739 5739 5739 5739 5739 5739 5738 5738 5738 5738 5738 5738 5738 5738 5738 5738 5737 5737 5736 5736 5735 5734 5733 5732 5731 5729
5713 5714 5715 5715 5716 5718 5718 5719 5721 5722 5723 5724 5726 5727 5729 5730 5731 5732 5733 5733 5734 5734 5735 5735 5734 5735 5735 5735 5735 5735 5735 5735 5736 5736 5736 5736 5736 5736 5736 5735 5735 5736 5735 5735 5735 5735 5734 5734 5734 5733 5733 5733 5732 5732 5732 5732 5731 5730 5729 5728 5727 5725 5724
5710 5711 5712 5713 5714 5715 5716 5717 5718 5719 5721 5722 5723 5725 5726 5727 5728 5729 5730 5731 5731 5731 5731 5731 5731 5731 5732 5732 5732 5732 5732 5732 5733 5733 5733 5733 5733 5733 5732 5732 5732 5731 5731 5731 5731 5731 5731 5730 5730 5729 5728 5728 5728 5727 5727 5726 5725 5724 5723 5722 5720 5719 5717
5708 5708 5710 5711 5711 5712 5714 5715 5716 5717 5718 5720 5721 5722 5723 5724 5725 5726 5727 5727 5727 5727 5728 5728 5728 5728 5728 5728 5728 5728 5729 5729 5730 5730 5730 5729 5729 5729 5728 5728 5728 5728 5728 5727 5727 5726 5725 5725 5724 5724 5724 5723 5723 5722 5721 5720 5719 5717 5716 5715 5713 5712 5709
5706 5706 5707 5708 5709 5711 5712 5713 5714 5715 5716 5717 5718 5719 5720 5721 5722 5723 5723 5724 5724 5724 5724 5724 5725 5725 5725 5725 5725 5725 5725 5726 5726 5726 5726 5725 5725 5725 5725 5725 5724 5724 5723 5723 5722 5721 5720 5720 5719 5719 5718 5717 5716 5715 5715 5713 5711 5710 5708 5707 5705 5703 5701
5704 5704 5705 5706 5707 5708 5710 5711 5712 5712 5712 5713 5715 5716 5717 5718 5718 5719 5720 5721 5720 5720 5720 5720 5720 5721 5721 5721 5721 5722 5722 5722 5721 5721 5721 5721 5720 5720 5720 5720 5720 5719 5718 5717 5716 5716 5715 5715 5714 5712 5711 5710 5709 5709 5708 5706 5704 5702 5701 5699 5698 5696 5694